TITAN 3C TRANSTAGE DEB, 2050

Orbit data source: Space-Track

TITAN 3C TRANSTAGE DEB, 2050 is space debris in LEO originally from a launch on Fri, 15 Oct 1965 UTC launched from the Air Force Eastern Test Range (AFETR). Debris objects in space refer to the collection of defunct objects orbiting the Earth. Examples of debris include non-operational satellites, rocket bodies, and fragments generated from explosions, collisions, or faulty payload assembly.

Loading next visibility...
Identifier
2050, 1965-082JL
Orbit
LEO
Country
Flag of USUS
Related business
Manufacturer
Unknown
Mission
Spacecraft
Bus & Motor
Unknown
Mass
Unknown
Launch date (UTC)
1965-10-15 (60 years ago)
Launch vehicle
Unknown
Launch site
Air Force Eastern Test Range (AFETR)
Object type
Payload
Rocket body
Debris
Shape & HBR
Unknown shape, 0.2 m
Radar Cross Section
Small (<0.1 m²)

Expand to show TLE details & history
Last TLE update: 11 hours ago

TLE from 11 hours ago
0 TITAN 3C TRANSTAGE DEB
1 02050U 65082JL  25350.93450785  .00000581  00000-0  12856-3 0  9993
2 02050  32.2633 217.0668 0083549 269.0031  90.1040 14.51414181132132
Epoch: 2025-12-16T22:25Z
TLE epoch observation values (Epoch: 2025-12-16T22:25:41.478Z)
Latitude
Longitude
154.83239°
Altitude
720.306 km
Speed
7.497 km/s
True Right ascension
14h 28m 16s
True Declination
0° 00' 00"
Sunlit
Object was in daylight at epoch
Visualization orbit readout
Latitude
Unknown
Longitude
Unknown
Altitude
Unknown
Speed
Unknown
Apparent Right ascension
Unknown
Apparent Declination
Unknown
Sunlit
N/A
Visualization observer readout
Local Sidereal Time
08:09:05
Azimuth
Unknown
Elevation
Unknown
Doppler factor
Unknown
Orbital elements
Apogee altitude
783.934 km
Perigee altitude
665.249 km
Semi-major axis
7,102.729 km
Eccentricity
0.00835
Inclination
32.2633°
RAAN
217.0668°
Arg. of periapsis
269.0031°
True anomaly
91.06134°
Mean anomaly
90.104°
Eccentric anomaly
90.58268°
Mean motion
3.62581 °/min
Orbital period
99.29 mins
BSTAR
0.00012856

Documentation

Showing up to 5 results
|